Cleveland Burke, OH

4:26 AM EDT on April 23, 2018 (GMT -0400)
Burke Lakefront

Weather History for KBKL - August, 2014

Change the Weather History Date:

Monday, August 11, 2014

  Actual Average Record
Temperature  
Mean Temperature 73 °F -  
Max Temperature 75 °F 78 °F 88 °F (2007)
Min Temperature 70 °F 65 °F 32 °F (1996)
Cooling Degree Days 8    
Growing Degree Days 23 (Base 50)    
Moisture  
Dew Point 66 °F    
Average Humidity 80    
Maximum Humidity 90    
Minimum Humidity 62    
Precipitation  
Precipitation 0.37 in - - ()
Sea Level Pressure  
Sea Level Pressure 29.84 in    
Wind  
Wind Speed 11 mph (SE)    
Max Wind Speed 18 mph    
Max Gust Speed 32 mph    
Visibility 10 miles    
Events Rain    
Averages and records for this station are not official NWS values.
T = Trace of Precipitation, MM = Missing Value Source: NWS Daily Summary

Daily Weather History Graph

Daily Weather History Graph

Search for Another Location

Airport or City:

Astronomy

Aug. 11, 2014 Rise Set
Actual Time 6:31 AM EDT 8:31 PM EDT
Civil Twilight 6:01 AM EDT 9:01 PM EDT
Nautical Twilight 5:24 AM EDT 9:38 PM EDT
Astronomical Twilight 4:43 AM EDT 10:18 PM EDT
Moon 8:57 PM EDT (8/11) 7:36 AM EDT (8/11)
Length of Visible Light 15h 00m
Length of Day
14h 00m
Full, 99% of the Moon is Illuminated
Aug 11
Full
Aug 17
Last Quarter
Aug 25
New
Sep 2
First Quarter
Sep 8
Full

Hourly Weather History & Observations

Time (EDT) Temp. Dew Point Humidity Pressure Visibility Wind Dir Wind Speed Gust Speed Precip Events Conditions
12:53 AM 75.9 °F 62.1 °F 62% 29.99 in 10.0 mi SE 6.9 mph - N/A   Clear
1:53 AM 75.0 °F 62.1 °F 64% 29.97 in 10.0 mi SE 9.2 mph - N/A   Partly Cloudy
2:53 AM 73.0 °F 63.0 °F 71% 29.96 in 10.0 mi SE 8.1 mph - N/A   Clear
3:53 AM 73.0 °F 64.0 °F 73% 29.96 in 10.0 mi SSE 9.2 mph - N/A   Clear
4:53 AM 73.0 °F 64.9 °F 76% 29.95 in 10.0 mi SSE 6.9 mph - N/A   Clear
5:53 AM 72.0 °F 64.9 °F 78% 29.94 in 10.0 mi SE 6.9 mph - N/A   Clear
6:53 AM 72.0 °F 64.0 °F 76% 29.93 in 10.0 mi SE 9.2 mph - N/A   Mostly Cloudy
7:53 AM 73.0 °F 64.0 °F 73% 29.93 in 10.0 mi SSE 8.1 mph - N/A   Mostly Cloudy
8:53 AM 73.0 °F 64.0 °F 73% 29.91 in 10.0 mi SE 11.5 mph 19.6 mph 0.00 in Rain Light Rain
9:53 AM 73.9 °F 64.0 °F 71% 29.91 in 10.0 mi SSE 15.0 mph 23.0 mph 0.00 in   Overcast
10:53 AM 73.0 °F 64.9 °F 76% 29.90 in 10.0 mi SE 11.5 mph - N/A   Overcast
11:53 AM 73.0 °F 66.0 °F 79% 29.89 in 10.0 mi SSE 15.0 mph 21.9 mph 0.01 in   Overcast
12:24 PM 71.6 °F 66.2 °F 83% 29.90 in 7.0 mi SE 15.0 mph - 0.06 in   Overcast
12:53 PM 73.0 °F 66.0 °F 79% 29.89 in 10.0 mi SSE 15.0 mph 21.9 mph 0.06 in   Overcast
1:53 PM 73.0 °F 66.0 °F 79% 29.88 in 10.0 mi SE 11.5 mph 21.9 mph N/A   Overcast
2:53 PM 72.0 °F 66.0 °F 81% 29.85 in 10.0 mi SE 9.2 mph - 0.01 in   Overcast
3:53 PM 73.0 °F 68.0 °F 84% 29.82 in 10.0 mi SE 10.4 mph 20.7 mph 0.05 in   Overcast
4:53 PM 75.0 °F 68.0 °F 79% 29.81 in 10.0 mi SE 16.1 mph 21.9 mph 0.01 in   Mostly Cloudy
5:33 PM 73.4 °F 66.2 °F 78% 29.80 in 10.0 mi SE 16.1 mph 24.2 mph N/A   Scattered Clouds
5:53 PM 73.9 °F 66.9 °F 79% 29.78 in 10.0 mi SE 17.3 mph 25.3 mph N/A   Partly Cloudy
6:53 PM 73.0 °F 66.9 °F 81% 29.75 in 10.0 mi SE 18.4 mph 23.0 mph N/A   Scattered Clouds
7:45 PM 71.6 °F 68.0 °F 88% 29.76 in 7.0 mi SSE 13.8 mph 21.9 mph 0.05 in   Overcast
7:53 PM 72.0 °F 68.0 °F 87% 29.75 in 10.0 mi SSE 9.2 mph - 0.05 in   Overcast
8:42 PM 71.6 °F 68.0 °F 88% 29.74 in 10.0 mi SSE 12.7 mph 21.9 mph N/A   Scattered Clouds
8:53 PM 72.0 °F 68.0 °F 87% 29.74 in 10.0 mi SSE 17.3 mph 25.3 mph N/A   Scattered Clouds
9:15 PM 71.6 °F 68.0 °F 88% 29.73 in 10.0 mi SSE 17.3 mph 24.2 mph N/A   Mostly Cloudy
9:30 PM 71.6 °F 66.2 °F 83% 29.74 in 10.0 mi SSE 17.3 mph 32.2 mph N/A   Mostly Cloudy
9:34 PM 71.6 °F 68.0 °F 88% 29.74 in 10.0 mi SSE 16.1 mph 32.2 mph N/A   Mostly Cloudy
9:53 PM 72.0 °F 68.0 °F 87% 29.73 in 10.0 mi SSE 17.3 mph 27.6 mph N/A   Scattered Clouds
10:53 PM 71.1 °F 68.0 °F 90% 29.73 in 10.0 mi SSE 11.5 mph 19.6 mph 0.10 in   Overcast
11:53 PM 70.0 °F 66.9 °F 90% 29.72 in 8.0 mi SSE 12.7 mph - 0.08 in   Overcast